Regional Weather Roundup
Issued by NWS

Home | Current Version | Previous Version | Graphics & Text | Print | Product List | Glossary On
Versions: 1 2 3 4 5 6 7 8 9 10 11 12 13 14 15 16 17 18 19 20 21 22 23 24 25 26 27 28 29 30 31 32 33 34 35 36 37 38 39 40 41 42 43 44 45 46 47 48 49 50
754
ASUS43 KLMK 270710
RWRKY
KENTUCKY REGIONAL WEATHER ROUNDUP
NATIONAL WEATHER SERVICE LOUISVILLE KY
300 AM EDT THU APR 27 2017

NOTE "FAIR" INDICATES FEW OR NO CLOUDS BELOW 12,000 FEET
WITH NO SIGNIFICANT WEATHER AND/OR OBSTRUCTIONS TO VISIBILITY.

KYZ001>023-026-027-061>063-070>075-270800-
WESTERN AND SOUTH CENTRAL KENTUCKY

CITY           SKY/WX    TMP DP  RH WIND       PRES   REMARKS
PADUCAH        CLOUDY    61  57  87 S6        29.52R
HENDERSON      CLOUDY    61  57  87 SE12      29.49F
OWENSBORO      LGT RAIN  60  59  96 E21       29.50F
HOPKINSVILLE   CLOUDY    60  60 100 S3        29.57R
BOWLING GREEN  LGT RAIN  65  60  84 W10       29.65S
GLASGOW        CLOUDY    71  57  60 W18G26    29.63S
$$

KYZ024-025-028>034-038-045-046-053-270800-
NORTH CENTRAL KENTUCKY

CITY           SKY/WX    TMP DP  RH WIND       PRES   REMARKS
LOUISVILLE/SDF LGT RAIN  70  57  63 W22G33    29.59R
LOUISVILLE/LOU CLOUDY    73  59  61 SW13G20   29.58S
FORT KNOX      LGT RAIN  64  57  78 W10G24    29.60R
$$

KYZ035>037-039>044-047>052-055>060-089>105-270800-
NORTHEAST KENTUCKY

CITY           SKY/WX    TMP DP  RH WIND       PRES   REMARKS
LEXINGTON      PTCLDY    65  55  70 S7        29.64R
COVINGTON      CLOUDY    67  55  65 S8        29.58F
FRANKFORT      CLOUDY    68  54  60 S7        29.60F
$$

KYZ054-064>069-076>088-106>120-270800-
SOUTHEAST KENTUCKY

CITY           SKY/WX    TMP DP  RH WIND       PRES   REMARKS
JACKSON        PTCLDY    67  56  67 CALM      29.69F
LONDON         CLOUDY    71  53  52 S13G21    29.67F
SOMERSET       PTCLDY    70  54  56 S8G23     29.68S
MIDDLESBORO    CLOUDY    70  56  61 S13G22    29.70F
MONTICELLO     CLOUDY    71  57  61 S14G23    29.65F
$$





USA.gov is the U.S. government's official web portal to all federal, state and local government web resources and services.